BAW389 EBBR-EGLL

Flight info

Callsign BAW389
Flight time 0h 47m
Altitude 24000
Route DCT HELEN L179 COA L608 LOGAN LOGAN2H
Aircraft A320/M-SDE3FGIJ1KRWXY/SB1

Departure

Time 2026-05-07 20:10
Airport Brussels Airport (EBBR)

Arrival

Time 2026-05-07 20:57
Airport London Heathrow Airport (EGLL)
Time Latitude Longitude Altitude Speed Heading
2026-05-07 19:38 50.90010 4.48539 144 ft 0 kts 157°
2026-05-07 19:55 50.90017 4.48534 144 ft 2 kts 156°
2026-05-07 19:55 50.90032 4.48524 143 ft 3 kts 157°
2026-05-07 19:55 50.90050 4.48512 142 ft 3 kts 155°
2026-05-07 19:55 50.90068 4.48497 141 ft 3 kts 143°
2026-05-07 19:56 50.90078 4.48482 140 ft 2 kts 92°
2026-05-07 19:56 50.90077 4.48465 140 ft 2 kts 65°
2026-05-07 19:56 50.90072 4.48450 139 ft 0 kts 62°
2026-05-07 19:56 50.90072 4.48451 139 ft 0 kts 63°
2026-05-07 19:57 50.90073 4.48452 139 ft 0 kts 63°
2026-05-07 20:00 50.90080 4.48476 139 ft 4 kts 63°
2026-05-07 20:00 50.90095 4.48523 139 ft 6 kts 64°
2026-05-07 20:00 50.90115 4.48594 140 ft 8 kts 66°
2026-05-07 20:00 50.90142 4.48682 140 ft 10 kts 65°
2026-05-07 20:01 50.90172 4.48785 141 ft 11 kts 65°
2026-05-07 20:01 50.90207 4.48909 141 ft 13 kts 66°
2026-05-07 20:01 50.90250 4.49056 141 ft 16 kts 66°
2026-05-07 20:01 50.90304 4.49240 138 ft 21 kts 66°
2026-05-07 20:02 50.90366 4.49460 136 ft 22 kts 66°
2026-05-07 20:02 50.90456 4.49592 133 ft 18 kts 14°
2026-05-07 20:02 50.90579 4.49644 127 ft 21 kts 16°
2026-05-07 20:02 50.90677 4.49685 122 ft 2 kts 11°
2026-05-07 20:03 50.90706 4.49694 123 ft 6 kts 12°
2026-05-07 20:03 50.90760 4.49716 121 ft 6 kts 14°
2026-05-07 20:03 50.90822 4.49741 116 ft 13 kts 14°
2026-05-07 20:03 50.90885 4.49768 111 ft 0 kts 15°
2026-05-07 20:04 50.90906 4.49777 112 ft 7 kts 17°
2026-05-07 20:04 50.90958 4.49830 109 ft 9 kts 39°
2026-05-07 20:04 50.91022 4.49899 107 ft 12 kts 24°
2026-05-07 20:04 50.91032 4.49905 107 ft 0 kts 24°
2026-05-07 20:05 50.91038 4.49910 106 ft 0 kts 24°
2026-05-07 20:07 50.91050 4.49918 104 ft 5 kts 24°
2026-05-07 20:07 50.91106 4.49935 104 ft 10 kts 349°
2026-05-07 20:07 50.91126 4.49842 105 ft 10 kts 250°
2026-05-07 20:07 50.91121 4.49824 106 ft 0 kts 248°
2026-05-07 20:09 50.91121 4.49823 106 ft 1 kts 248°
2026-05-07 20:09 50.91085 4.49689 108 ft 40 kts 246°
2026-05-07 20:10 50.90484 4.47633 119 ft 154 kts 245°
2026-05-07 20:10 50.90010 4.45987 511 ft 167 kts 246°
2026-05-07 20:10 50.89598 4.44280 1214 ft 166 kts 256°
2026-05-07 20:10 50.89442 4.42423 1695 ft 179 kts 270°
2026-05-07 20:11 50.89625 4.40352 1987 ft 202 kts 287°
2026-05-07 20:11 50.90265 4.38204 2268 ft 226 kts 306°
2026-05-07 20:11 50.91406 4.36366 2670 ft 250 kts 326°
2026-05-07 20:11 50.93005 4.35036 3411 ft 261 kts 334°
2026-05-07 20:12 50.94556 4.33481 4342 ft 267 kts 323°
2026-05-07 20:12 50.95923 4.31461 5282 ft 271 kts 311°
2026-05-07 20:12 50.97086 4.29097 6220 ft 275 kts 309°
2026-05-07 20:12 50.98408 4.26882 6718 ft 276 kts 314°
2026-05-07 20:13 50.99771 4.24722 7050 ft 277 kts 315°
2026-05-07 20:13 51.01154 4.22553 7675 ft 280 kts 314°
2026-05-07 20:13 51.02542 4.20374 8615 ft 282 kts 314°
2026-05-07 20:13 51.03940 4.18175 9498 ft 285 kts 314°
2026-05-07 20:14 51.05359 4.15942 10288 ft 292 kts 314°
2026-05-07 20:14 51.06856 4.13577 10536 ft 315 kts 314°
2026-05-07 20:14 51.08461 4.11034 10822 ft 334 kts 314°
2026-05-07 20:14 51.10125 4.08391 11441 ft 341 kts 314°
2026-05-07 20:15 51.11813 4.05709 12139 ft 345 kts 314°
2026-05-07 20:15 51.13517 4.02994 12842 ft 349 kts 314°
2026-05-07 20:15 51.15239 4.00244 13540 ft 353 kts 314°
2026-05-07 20:15 51.16976 3.97463 14206 ft 356 kts 313°
2026-05-07 20:16 51.18729 3.94652 14831 ft 359 kts 313°
2026-05-07 20:16 51.20498 3.91821 15461 ft 362 kts 313°
2026-05-07 20:16 51.22242 3.88908 16079 ft 364 kts 308°
2026-05-07 20:16 51.23675 3.85570 16685 ft 365 kts 297°
2026-05-07 20:17 51.24691 3.81852 17289 ft 367 kts 288°
2026-05-07 20:17 51.25513 3.78081 17898 ft 370 kts 288°
2026-05-07 20:17 51.26360 3.74190 18500 ft 373 kts 288°
2026-05-07 20:17 51.27216 3.70261 19058 ft 376 kts 288°
2026-05-07 20:18 51.28082 3.66314 19633 ft 378 kts 288°
2026-05-07 20:18 51.28958 3.62346 20208 ft 380 kts 288°
2026-05-07 20:18 51.29852 3.58301 20777 ft 382 kts 288°
2026-05-07 20:18 51.30736 3.54282 21323 ft 384 kts 288°
2026-05-07 20:19 51.31622 3.50237 21853 ft 387 kts 288°
2026-05-07 20:19 51.32508 3.46173 22367 ft 389 kts 288°
2026-05-07 20:19 51.33398 3.42068 22809 ft 394 kts 288°
2026-05-07 20:19 51.34305 3.37871 22954 ft 405 kts 288°
2026-05-07 20:20 51.35215 3.33681 23207 ft 412 kts 288°
2026-05-07 20:20 51.36204 3.29362 23617 ft 415 kts 289°
2026-05-07 20:20 51.36884 3.26495 23865 ft 417 kts 289°
2026-05-07 20:20 51.37929 3.22161 24053 ft 418 kts 290°
2026-05-07 20:21 51.38989 3.17770 24091 ft 428 kts 290°
2026-05-07 20:21 51.40073 3.13260 24090 ft 436 kts 289°
2026-05-07 20:21 51.41157 3.08720 24086 ft 438 kts 289°
2026-05-07 20:21 51.42242 3.04157 24087 ft 439 kts 289°
2026-05-07 20:22 51.43322 2.99584 24091 ft 439 kts 289°
2026-05-07 20:22 51.44394 2.95007 24089 ft 439 kts 289°
2026-05-07 20:22 51.45477 2.90366 24086 ft 439 kts 289°
2026-05-07 20:22 51.46543 2.85789 24088 ft 439 kts 289°
2026-05-07 20:23 51.47613 2.81196 24091 ft 439 kts 289°
2026-05-07 20:23 51.48675 2.76614 24091 ft 438 kts 289°
2026-05-07 20:23 51.49735 2.72034 24092 ft 438 kts 289°
2026-05-07 20:23 51.50795 2.67441 24094 ft 438 kts 289°
2026-05-07 20:24 51.51853 2.62854 24093 ft 438 kts 289°
2026-05-07 20:24 51.52910 2.58266 24091 ft 438 kts 289°
2026-05-07 20:24 51.53961 2.53683 24089 ft 438 kts 289°
2026-05-07 20:24 51.55012 2.49090 24088 ft 438 kts 289°
2026-05-07 20:25 51.56063 2.44495 24089 ft 438 kts 289°
2026-05-07 20:25 51.57114 2.39897 24091 ft 438 kts 289°
2026-05-07 20:25 51.58168 2.35304 24091 ft 438 kts 289°
2026-05-07 20:25 51.59219 2.30717 24087 ft 438 kts 289°
2026-05-07 20:26 51.60267 2.26121 24091 ft 437 kts 289°
2026-05-07 20:26 51.61287 2.21628 24087 ft 417 kts 289°
2026-05-07 20:26 51.62255 2.17349 24096 ft 397 kts 288°
2026-05-07 20:26 51.63348 2.13385 24093 ft 381 kts 301°
2026-05-07 20:27 51.65092 2.10299 24096 ft 369 kts 321°
2026-05-07 20:27 51.67284 2.08276 24096 ft 358 kts 331°
2026-05-07 20:27 51.69506 2.06560 24099 ft 353 kts 332°
2026-05-07 20:27 51.71728 2.04868 24099 ft 352 kts 332°
2026-05-07 20:28 51.73940 2.03184 24099 ft 352 kts 332°
2026-05-07 20:28 51.76156 2.01497 24105 ft 352 kts 332°
2026-05-07 20:28 51.78399 1.99789 24105 ft 352 kts 332°
2026-05-07 20:28 51.80610 1.98103 24107 ft 352 kts 332°
2026-05-07 20:29 51.82824 1.96413 24104 ft 352 kts 332°
2026-05-07 20:29 51.85040 1.94720 24103 ft 352 kts 332°
2026-05-07 20:29 51.87251 1.93030 24110 ft 352 kts 332°
2026-05-07 20:29 51.89378 1.91112 24108 ft 348 kts 318°
2026-05-07 20:30 51.90951 1.88213 24114 ft 342 kts 297°
2026-05-07 20:30 51.91719 1.84621 24105 ft 337 kts 276°
2026-05-07 20:30 51.91656 1.80857 24102 ft 335 kts 257°
2026-05-07 20:30 51.90809 1.77357 24092 ft 335 kts 238°
2026-05-07 20:31 51.89268 1.74530 24093 ft 338 kts 219°
2026-05-07 20:31 51.87264 1.72526 24079 ft 340 kts 211°
2026-05-07 20:31 51.85204 1.70654 24084 ft 341 kts 211°
2026-05-07 20:31 51.83133 1.68781 24094 ft 341 kts 211°
2026-05-07 20:32 51.81075 1.66860 24088 ft 341 kts 215°
2026-05-07 20:32 51.79189 1.64550 24091 ft 340 kts 223°
2026-05-07 20:32 51.77547 1.61815 24085 ft 339 kts 232°
2026-05-07 20:32 51.76173 1.58728 24090 ft 338 kts 239°
2026-05-07 20:33 51.74903 1.55536 24092 ft 339 kts 230°
2026-05-07 20:33 51.73087 1.53117 24097 ft 341 kts 213°
2026-05-07 20:33 51.71043 1.51156 24089 ft 342 kts 212°
2026-05-07 20:33 51.68951 1.49211 24095 ft 343 kts 212°
2026-05-07 20:34 51.66886 1.47297 24102 ft 343 kts 212°
2026-05-07 20:34 51.64819 1.45377 24100 ft 343 kts 213°
2026-05-07 20:34 51.62981 1.42979 24100 ft 340 kts 231°
2026-05-07 20:34 51.61746 1.39777 24102 ft 338 kts 249°
2026-05-07 20:35 51.61196 1.36085 23451 ft 346 kts 267°
2026-05-07 20:35 51.61283 1.32142 22425 ft 359 kts 272°
2026-05-07 20:35 51.61436 1.28072 21520 ft 368 kts 272°
2026-05-07 20:35 51.61586 1.24074 21364 ft 346 kts 272°
2026-05-07 20:36 51.61723 1.20305 21121 ft 333 kts 272°
2026-05-07 20:36 51.61848 1.16620 20834 ft 327 kts 272°
2026-05-07 20:36 51.61964 1.13001 20390 ft 322 kts 271°
2026-05-07 20:36 51.62076 1.09409 19739 ft 320 kts 271°
2026-05-07 20:37 51.62185 1.05854 19114 ft 317 kts 271°
2026-05-07 20:37 51.62292 1.02315 18507 ft 315 kts 271°
2026-05-07 20:37 51.62397 0.98800 17839 ft 313 kts 271°
2026-05-07 20:37 51.62501 0.95316 17186 ft 311 kts 271°
2026-05-07 20:38 51.62601 0.91851 16552 ft 308 kts 271°
2026-05-07 20:38 51.62699 0.88413 15927 ft 306 kts 271°
2026-05-07 20:38 51.62798 0.84997 15465 ft 306 kts 271°
2026-05-07 20:38 51.62896 0.81587 15143 ft 304 kts 271°
2026-05-07 20:39 51.62994 0.78194 14809 ft 303 kts 271°
2026-05-07 20:39 51.63091 0.74817 14472 ft 302 kts 271°
2026-05-07 20:39 51.63186 0.71453 14144 ft 301 kts 270°
2026-05-07 20:39 51.63276 0.68096 13797 ft 299 kts 270°
2026-05-07 20:40 51.63366 0.64753 13435 ft 298 kts 270°
2026-05-07 20:40 51.63456 0.61388 13079 ft 296 kts 270°
2026-05-07 20:40 51.63546 0.58083 12729 ft 295 kts 271°
2026-05-07 20:40 51.63634 0.54793 12388 ft 293 kts 270°
2026-05-07 20:41 51.63720 0.51528 12054 ft 292 kts 271°
2026-05-07 20:41 51.63804 0.48270 11713 ft 291 kts 271°
2026-05-07 20:41 51.63885 0.45030 11377 ft 289 kts 271°
2026-05-07 20:41 51.63966 0.41803 11050 ft 288 kts 271°
2026-05-07 20:42 51.64047 0.38590 10723 ft 286 kts 271°
2026-05-07 20:42 51.64128 0.35395 10403 ft 285 kts 271°
2026-05-07 20:42 51.64206 0.32216 10077 ft 283 kts 271°
2026-05-07 20:42 51.64282 0.29059 9750 ft 282 kts 271°
2026-05-07 20:43 51.64354 0.25920 9411 ft 280 kts 271°
2026-05-07 20:43 51.64424 0.22793 9065 ft 279 kts 271°
2026-05-07 20:43 51.64496 0.19684 8735 ft 277 kts 271°
2026-05-07 20:43 51.64567 0.16593 8398 ft 276 kts 270°
2026-05-07 20:44 51.64530 0.13516 8119 ft 273 kts 266°
2026-05-07 20:44 51.64439 0.10461 8079 ft 274 kts 266°
2026-05-07 20:44 51.64341 0.07387 8084 ft 276 kts 266°
2026-05-07 20:44 51.64243 0.04301 8083 ft 276 kts 266°
2026-05-07 20:45 51.64144 0.01232 8084 ft 275 kts 266°
2026-05-07 20:45 51.64044 -0.01852 8083 ft 275 kts 266°
2026-05-07 20:45 51.63944 -0.04925 8081 ft 275 kts 266°
2026-05-07 20:45 51.63842 -0.07998 8083 ft 275 kts 266°
2026-05-07 20:46 51.63740 -0.11072 8083 ft 275 kts 266°
2026-05-07 20:46 51.63635 -0.14180 8083 ft 275 kts 266°
2026-05-07 20:46 51.63530 -0.17212 8049 ft 275 kts 266°
2026-05-07 20:46 51.63421 -0.20317 7916 ft 274 kts 266°
2026-05-07 20:47 51.63314 -0.23375 7789 ft 273 kts 266°
2026-05-07 20:47 51.63205 -0.26428 7659 ft 273 kts 266°
2026-05-07 20:47 51.63095 -0.29468 7533 ft 272 kts 266°
2026-05-07 20:47 51.62983 -0.32508 7409 ft 272 kts 266°
2026-05-07 20:48 51.62869 -0.35545 7283 ft 272 kts 266°
2026-05-07 20:48 51.62753 -0.38584 7158 ft 271 kts 266°
2026-05-07 20:48 51.62637 -0.41614 7074 ft 271 kts 266°
2026-05-07 20:48 51.62521 -0.44640 7082 ft 272 kts 266°
2026-05-07 20:49 51.62402 -0.47680 7083 ft 272 kts 266°
2026-05-07 20:49 51.62283 -0.50703 6937 ft 270 kts 266°
2026-05-07 20:49 51.62162 -0.53717 6608 ft 270 kts 266°
2026-05-07 20:49 51.62040 -0.56725 6262 ft 269 kts 266°
2026-05-07 20:50 51.61920 -0.59730 5907 ft 269 kts 266°
2026-05-07 20:50 51.61691 -0.62705 5576 ft 267 kts 251°
2026-05-07 20:50 51.60951 -0.65354 5453 ft 253 kts 242°
2026-05-07 20:50 51.60159 -0.67786 5225 ft 239 kts 241°
2026-05-07 20:51 51.59387 -0.70130 4770 ft 236 kts 241°
2026-05-07 20:51 51.58620 -0.72457 4400 ft 235 kts 241°
2026-05-07 20:51 51.57850 -0.74770 4109 ft 233 kts 238°
2026-05-07 20:51 51.56736 -0.76557 3982 ft 228 kts 205°
2026-05-07 20:52 51.55718 -0.77067 3984 ft 228 kts 187°
2026-05-07 20:52 51.54145 -0.77295 3828 ft 225 kts 182°
2026-05-07 20:52 51.52615 -0.77402 3701 ft 216 kts 181°
2026-05-07 20:52 51.51149 -0.77491 3612 ft 206 kts 180°
2026-05-07 20:53 51.49803 -0.77092 3533 ft 193 kts 148°
2026-05-07 20:53 51.48882 -0.75628 3469 ft 185 kts 125°
2026-05-07 20:53 51.48190 -0.73928 3369 ft 178 kts 122°
2026-05-07 20:53 51.47683 -0.72161 3153 ft 176 kts 102°
2026-05-07 20:54 51.47634 -0.70206 2843 ft 176 kts 90°
2026-05-07 20:54 51.47649 -0.68257 2578 ft 173 kts 91°
2026-05-07 20:54 51.47661 -0.66344 2336 ft 170 kts 91°
2026-05-07 20:54 51.47672 -0.64470 2105 ft 167 kts 91°
2026-05-07 20:55 51.47682 -0.62630 1882 ft 164 kts 91°
2026-05-07 20:55 51.47692 -0.60802 1657 ft 163 kts 91°
2026-05-07 20:55 51.47701 -0.58987 1448 ft 163 kts 91°
2026-05-07 20:55 51.47710 -0.57188 1210 ft 158 kts 91°
2026-05-07 20:56 51.47718 -0.55495 990 ft 147 kts 91°
2026-05-07 20:56 51.47725 -0.53891 794 ft 142 kts 91°
2026-05-07 20:56 51.47732 -0.52329 604 ft 139 kts 91°
2026-05-07 20:56 51.47737 -0.50787 409 ft 137 kts 91°
2026-05-07 20:57 51.47747 -0.49269 224 ft 136 kts 90°
2026-05-07 20:57 51.47750 -0.47757 103 ft 135 kts 91°
2026-05-07 20:57 51.47754 -0.46395 88 ft 100 kts 88°
2026-05-07 20:57 51.47758 -0.45661 88 ft 29 kts 89°
2026-05-07 20:58 51.47718 -0.45479 87 ft 17 kts 152°
2026-05-07 20:58 51.47655 -0.45470 86 ft 1 kts 182°
2026-05-07 20:58 51.47653 -0.45471 86 ft 0 kts 182°
2026-05-07 20:59 51.47651 -0.45471 87 ft 1 kts 182°
2026-05-07 20:59 51.47635 -0.45471 87 ft 3 kts 180°
2026-05-07 20:59 51.47603 -0.45471 87 ft 6 kts 180°
2026-05-07 20:59 51.47551 -0.45470 87 ft 9 kts 180°
2026-05-07 21:00 51.47508 -0.45544 90 ft 11 kts 262°
2026-05-07 21:00 51.47508 -0.45683 89 ft 14 kts 270°
2026-05-07 21:00 51.47516 -0.45849 87 ft 16 kts 270°
2026-05-07 21:00 51.47516 -0.46043 87 ft 19 kts 270°
2026-05-07 21:01 51.47514 -0.46257 87 ft 20 kts 269°
2026-05-07 21:01 51.47514 -0.46492 87 ft 22 kts 270°
2026-05-07 21:01 51.47510 -0.46713 89 ft 17 kts 251°
2026-05-07 21:01 51.47494 -0.46905 87 ft 18 kts 270°
2026-05-07 21:02 51.47493 -0.47113 87 ft 19 kts 268°
2026-05-07 21:02 51.47492 -0.47332 87 ft 20 kts 270°
2026-05-07 21:02 51.47490 -0.47563 87 ft 21 kts 269°
2026-05-07 21:02 51.47490 -0.47807 87 ft 22 kts 270°
2026-05-07 21:03 51.47489 -0.48060 87 ft 23 kts 270°
2026-05-07 21:03 51.47489 -0.48263 87 ft 11 kts 270°
2026-05-07 21:03 51.47459 -0.48363 88 ft 11 kts 198°
2026-05-07 21:03 51.47379 -0.48361 87 ft 12 kts 180°
2026-05-07 21:04 51.47289 -0.48362 87 ft 14 kts 180°
2026-05-07 21:04 51.47188 -0.48362 87 ft 15 kts 180°
2026-05-07 21:04 51.47078 -0.48359 87 ft 17 kts 179°
2026-05-07 21:04 51.46956 -0.48357 88 ft 16 kts 181°
2026-05-07 21:05 51.46881 -0.48397 89 ft 11 kts 242°
2026-05-07 21:05 51.46877 -0.48524 87 ft 11 kts 270°
2026-05-07 21:05 51.46877 -0.48649 87 ft 8 kts 269°
2026-05-07 21:05 51.46876 -0.48697 87 ft 1 kts 270°
2026-05-07 21:06 51.46879 -0.48707 87 ft 1 kts 291°
2026-05-07 21:06 51.46887 -0.48713 87 ft 2 kts 332°
2026-05-07 21:06 51.46898 -0.48715 89 ft 0 kts 354°
2026-05-07 21:06 51.46900 -0.48715 89 ft 1 kts 354°
2026-05-07 21:07 51.46920 -0.48717 88 ft 4 kts 356°
2026-05-07 21:07 51.46926 -0.48718 89 ft 1 kts 358°
2026-05-07 21:07 51.46931 -0.48718 89 ft 0 kts 359°